NOAA 16 DEB, 42387

Orbit data source: Space-Track

NOAA 16 DEB, 42387 is space debris in SSO originally from a launch on Thu, 21 Sep 2000 UTC launched from the Air Force Western Test Range (AFWTR). Debris objects in space refer to the collection of defunct objects orbiting the Earth. Examples of debris include non-operational satellites, rocket bodies, and fragments generated from explosions, collisions, or faulty payload assembly.

Loading next visibility...
Identifier
42387, 2000-055SF
Orbit
SSO
Country
Flag of USUS
Related business
Manufacturer
Unknown
Mission
Spacecraft
Bus & Motor
Unknown
Mass
Unknown
Launch date (UTC)
2000-09-21 (25 years ago)
Launch vehicle
Unknown
Launch site
Air Force Western Test Range (AFWTR)
Object type
Payload
Rocket body
Debris
Shape & HBR
Unknown
Radar Cross Section
Small (<0.1 m²)

Expand to show TLE details & history
Last TLE update: 3 days ago

TLE from 3 days ago
0 NOAA 16 DEB
1 42387U 00055SF  25259.26531563  .00007666  00000-0  24974-2 0  9991
2 42387  98.8266  15.5858 0011385 328.3098  31.7402 14.38945305496185
Epoch: 2025-09-16T06:22Z
TLE epoch observation values (Epoch: 2025-09-16T06:22:03.27Z)
Latitude
-0.00003°
Longitude
-75.38592°
Altitude
758.01 km
Speed
7.479 km/s
True Right ascension
01h 02m 20s
True Declination
0° 00' 00"
Sunlit
Object was in full shadow at epoch
Visualization orbit readout
Latitude
Unknown
Longitude
Unknown
Altitude
Unknown
Speed
Unknown
Apparent Right ascension
Unknown
Apparent Declination
Unknown
Sunlit
N/A
Visualization observer readout
Local Sidereal Time
20:01:49
Azimuth
Unknown
Elevation
Unknown
Doppler factor
Unknown
Orbital elements
Apogee altitude
767.25 km
Perigee altitude
750.999 km
Semi-major axis
7,137.261 km
Eccentricity
0.00114
Inclination
98.8266°
RAAN
15.5858°
Arg. of periapsis
328.3098°
True anomaly
31.80892°
Mean anomaly
31.7402°
Eccentric anomaly
31.77455°
Mean motion
3.59953 °/min
Orbital period
100.01 mins
BSTAR
0.0024974
Loading maneuver chart data...
Computing Atmospheric mass density...
Loading historical data...
Loading historical data...
Loading historical data...
Loading historical data...
Loading historical data...
Loading historical data...
Loading historical data...

Documentation

Showing up to 5 results
|